Home   Weather   Jyväskylä   Past weeks

Flag for Finland Past Weather in Jyväskylä, Finland — Yesterday and Last 2 Weeks

43 °F

Light rain. Low clouds.

Feels Like: 37 °F
Forecast: 37 / 41 °F
Wind: 10 mph from Northwest

Location: Jyvaskyla Airport

Current Time: Oct 28, 2016 at 10:44:35 PM

Latest Report: Oct 28, 2016 at 10:20 PM

Visibility: N/A

Pressure: 29.33 "Hg

Humidity: 93%

Dew Point: 41 °F

Location of JyväskyläLocation

Past Weather in Jyväskylä — Graph


Jyväskylä Temperature Yesterday

Maximum temperature yesterday: 43 °F (at 8:50 PM)
Minimum temperature yesterday: 25 °F (at 12:20 AM)
Average temperature yesterday: 35 °F

High & Low Weather Summary for the Past Weeks

High46 °F (Oct 28, 11:20 AM)100% (Oct 14, 12:50 AM)30.69 "Hg (Oct 14, 12:50 AM)
Low25 °F (Oct 26, 9:50 PM)61% (Oct 18, 5:50 PM)29.33 "Hg (Oct 28, 8:50 PM)
Average36 °F85%30.41 "Hg
* Reported Oct 13 9:20 PM — Oct 28 9:20 PM, Jyväskylä, Weather by CustomWeather, © 2016

Note: Actual official high and low records may vary slightly from our data, if they occured in-between our weather recording intervals... More about our weather records


Jyväskylä Weather History for the Previous 24 Hours

Scroll right to see more
Time TempWeatherWind HumidityBarometerVisibility
9:20 PM
Fri, Oct 28
45 °FRain. Mostly cloudy.2 mph93%29.33 "Hg5 mi
8:50 PM45 °FRain. Low clouds.2 mph93%29.33 "Hg1 mi
8:20 PM43 °FFog.1 mph100%29.36 "Hg1 mi
7:50 PM43 °FFog.3 mph100%29.36 "Hg2 mi
7:20 PM43 °FScattered showers. Fog.3 mph100%29.36 "Hg3 mi
6:50 PM45 °FMostly cloudy.5 mph93%29.39 "HgN/A
6:20 PM45 °FSprinkles. Mostly cloudy.3 mph93%29.39 "Hg4 mi
5:50 PM45 °FFog.3 mph93%29.39 "Hg1 mi
5:20 PM45 °FLow clouds.3 mph100%29.42 "HgN/A
4:50 PM45 °FScattered showers. Low clouds.5 mph100%29.42 "HgN/A
4:20 PM45 °FLow clouds.6 mph100%29.42 "HgN/A
3:50 PM46 °FLow clouds.5 mph93%29.45 "HgN/A
3:20 PM46 °FLow clouds.5 mph93%29.45 "HgN/A
2:50 PM46 °FLight rain. Mostly cloudy.5 mph93%29.47 "HgN/A
2:20 PM46 °FLight rain. Low clouds.3 mph93%29.47 "HgN/A
1:50 PM46 °FPartly sunny.3 mph93%29.50 "HgN/A
1:20 PM46 °FPartly sunny.5 mph93%29.50 "HgN/A
12:50 PM46 °FSprinkles. Broken clouds.5 mph93%29.50 "HgN/A
12:20 PM45 °FLight rain. Partly sunny.3 mph100%29.53 "HgN/A
11:50 AM45 °FPartly sunny.3 mph100%29.53 "HgN/A
11:20 AM46 °FSprinkles. Partly sunny.5 mph93%29.53 "HgN/A
10:50 AM45 °FSprinkles. Partly sunny.3 mph100%29.53 "HgN/A
10:20 AM45 °FPartly sunny.7 mph100%29.56 "HgN/A
9:50 AM45 °FLight rain. Partly sunny.7 mph100%29.56 "HgN/A
9:20 AM45 °FLight rain. Partly sunny.5 mph93%29.56 "Hg6 mi
8:50 AM45 °FLight rain. Partly sunny.3 mph93%29.56 "Hg4 mi
8:20 AM45 °FLight rain. Passing clouds.5 mph93%29.56 "Hg5 mi
7:50 AM45 °FLight rain. Low clouds.5 mph93%29.59 "Hg4 mi
7:20 AM45 °FLight rain. Low clouds.7 mph93%29.59 "HgN/A
6:50 AM45 °FLight rain. Low clouds.8 mph93%29.59 "HgN/A
6:20 AM45 °FLight rain. Low clouds.7 mph93%29.62 "HgN/A
5:50 AM45 °FLight rain. Low clouds.8 mph93%29.62 "HgN/A
5:20 AM45 °FLight rain. Low clouds.8 mph93%29.65 "HgN/A
4:50 AM45 °FLight rain. Low clouds.6 mph93%29.65 "HgN/A
4:20 AM45 °FLight rain. Low clouds.6 mph93%29.68 "HgN/A
3:50 AM45 °FLight rain. Low clouds.7 mph93%29.71 "HgN/A
3:20 AM43 °FLight rain. Low clouds.7 mph100%29.71 "HgN/A
2:50 AM45 °FLight rain. Low clouds.7 mph93%29.74 "HgN/A
2:20 AM45 °FLight rain. Low clouds.6 mph93%29.77 "HgN/A
1:50 AM45 °FLight rain. Low clouds.6 mph93%29.77 "HgN/A
1:20 AM43 °FLight rain. Low clouds.6 mph100%29.77 "HgN/A
12:50 AM43 °FSprinkles. Low clouds.6 mph100%29.80 "Hg3 mi
12:20 AM43 °FLow clouds.5 mph100%29.83 "HgN/A
11:50 PM
Thu, Oct 27
43 °FLow clouds.7 mph100%29.83 "HgN/A
11:20 PM43 °FLow clouds.7 mph93%29.83 "HgN/A
10:50 PM43 °FLow clouds.7 mph93%29.83 "HgN/A
10:20 PM43 °FSprinkles. Low clouds.6 mph93%29.83 "HgN/A
Weather by CustomWeather, © 2016

See weather overviewHow to use our weather pages